Regional Weather Roundup
Issued by NWS Columbia, SC

Home | Current Version | Previous Version | Text Only | Print | Product List | Glossary On
Versions: 1 2 3 4 5 6 7 8 9 10 11 12 13 14 15 16 17 18 19 20 21 22 23 24 25 26 27 28 29 30 31 32 33 34 35 36 37 38 39 40 41 42 43 44 45 46 47 48 49 50
000
ASUS42 KCAE 112210
RWRCAE
REGIONAL WEATHER ROUNDUP
NATIONAL WEATHER SERVICE COLUMBIA SC
600 PM EDT FRI JUL 11 2014

NOTE: "FAIR" INDICATES FEW OR NO CLOUDS BELOW 12,000 FEET WITH NO
SIGNIFICANT WEATHER AND/OR OBSTRUCTIONS TO VISIBILITY.

NOT ALL STATIONS ARE QUALITY CONTROLLED BY THE NATIONAL
WEATHER SERVICE. USE DATA WITH CAUTION...ESPECIALLY
DEWPOINT OBSERVATIONS.

SCZ001>056-GAZ040-063>065-077-112300-
...UPSTATE SOUTH CAROLINA...

CITY           SKY/WX    TMP DP  RH WIND       PRES   REMARKS
ANDERSON       MOSUNNY   88  70  55 SE12      30.13S
LIBERTY        FAIR      89  87  94 E6        30.13F HX 121
SPARTANBURG    FAIR      86  70  58 SE6       30.14S
CLEMSON        MOSUNNY   91  65  41 E8        30.14S
GREENVILLE     MOSUNNY   88  67  49 E8        30.15S
GREENWOOD      MOSUNNY   87  70  56 E7        30.14F
GREER          PTSUNNY   84  69  60 E10       30.14R
ROCK HILL      SUNNY     85  68  56 E5        30.15F
CHESTER        FAIR      88  70  55 SE8       30.15S
LAURENS        FAIR      88  66  48 E5        30.15S


...CENTRAL SOUTH CAROLINA...

CITY           SKY/WX    TMP DP  RH WIND       PRES   REMARKS
COLUMBIA APT   PTSUNNY   86  69  56 E7        30.13S
COLUMBIA OWENS PTSUNNY   83  70  64 SE3       30.15S
DARLINGTON     PTSUNNY   82  70  65 NE6       30.16R
FLORENCE       PTSUNNY   84  70  62 SE5       30.14S
MCENTIRE ANGB  PTSUNNY   82  72  71 NE5       30.15S
ORANGEBURG     PTSUNNY   81  72  74 VRB5      30.13S
SUMTER SHAW    MOSUNNY   84  73  68 E5        30.13S
NEWBERRY       FAIR      86  72  62 SE6       30.16F
AIKEN          FAIR      86  73  66 E8        30.16F
BARNWELL       MOCLDY    82  75  78 E6        30.13F
MANNING        MOCLDY    84  73  70 NE3       30.14R
CAMDEN         MOCLDY    82  72  69 SE6       30.16R
LANCASTER        N/A     84  72  65 SE5       30.15S
WINNSBORO      FAIR      82  70  65 E7        30.15S


...EASTERN AND COASTAL SOUTH CAROLINA...

CITY           SKY/WX    TMP DP  RH WIND       PRES   REMARKS
MYRTLE BEACH   PTSUNNY   81  73  78 E8        30.15S
N MYRTLE BCH   CLOUDY    79  73  82 SE5       30.15F
CONWAY         FAIR      79  72  78 CALM      30.15S
MARION         CLOUDY    81  72  74 S3        30.15S
HARTSVILLE     FAIR      82  54  36 SE6       30.16S
FLORENCE       PTSUNNY   84  70  62 SE5       30.14S
DARLINGTON     PTSUNNY   82  70  65 NE6       30.16R
CHARLESTON APT PTSUNNY   82  72  69 S15G21    30.13R THUNDER
MOUNT PLEASANT FAIR      82  75  78 SE3       30.14R
WALTERBORO     MOCLDY    86  68  54 NE3       30.13S
BEAUFORT       PTSUNNY   88  72  58 VRB3      30.13R THUNDER


...EASTERN GEORGIA...

CITY           SKY/WX    TMP DP  RH WIND       PRES   REMARKS
AUGUSTA BUSH F CLOUDY    84  73  69 SE8       30.10F
AUGUSTA DANIEL CLOUDY    87  73  62 SE10      30.12F
THOMSON        PTSUNNY   87  77  72 SE5       30.16S HX  99
WASHINGTON     FAIR      90  75  62 SE7       30.11S HX 100
CLAXTON        FAIR      81  75  83 SE7       30.12S
SYLVANIA       MOCLDY    85  75  71 S6        30.12F
STATESBORO     PTSUNNY   84  71  64 S9        30.12S
SAVANNAH       CLOUDY    78  73  84 CALM      30.13F


...SOUTHERN NORTH CAROLINA...

CITY           SKY/WX    TMP DP  RH WIND       PRES   REMARKS
CHARLOTTE      PTSUNNY   87  63  44 E8        30.15F
MONROE         MOSUNNY   84  67  56 CALM      30.14F
WADESBORO      PTCLDY    85  67  55 CALM      30.14S
ROCKINGHAM       N/A     84  70  61 CALM      30.14F
RUTHERFORDTON  MOSUNNY   86  67  53 E6        30.16S
ASHEVILLE      MOSUNNY   82  65  56 SE6       30.22S

$$


USA.gov is the U.S. government's official web portal to all federal, state and local government web resources and services.